Regional Weather Roundup
Issued by NWS

Home | Current Version | Previous Version | Graphics & Text | Print | Product List | Glossary On
Versions: 1 2 3 4 5 6 7 8 9 10 11 12 13 14 15 16 17 18 19 20 21 22 23 24 25 26 27 28 29 30 31 32 33 34 35 36 37 38 39 40 41 42 43 44 45 46 47 48 49 50
000
ASUS43 KDMX 271107
RWRIA

WEATHER ROUNDUP FOR IOWA
NATIONAL WEATHER SERVICE DES MOINES IA
600 AM CDT WED AUG 27 2014

NOTE: "FAIR" INDICATES FEW OR NO CLOUDS BELOW 12,000 FEET WITH NO
SIGNIFICANT WEATHER AND/OR OBSTRUCTIONS TO VISIBILITY.

* - THESE STATIONS ARE NOT NWS STATIONS...THUS NOT UNDER NWS
QUALITY CONTROL.  THEY ALSO DO NOT REPORT WEATHER SUCH
AS PRECIPITATION OR FOG.

IAZ001>003-012>014-020>022-031>034-043>046-271200-
   NORTHWEST IOWA

CITY           SKY/WX    TMP DP  RH WIND       PRES   REMARKS
CARROLL *      CLOUDY    64  63  94 CALM      30.14R
CHEROKEE *     CLOUDY    61  59  94 NE3       30.14F
DENISON *      CLOUDY    64  64 100 NE6       30.12R
LE MARS *      PTCLDY    61  57  88 VRB6G13   30.13F
ORANGE CITY *  CLEAR     59  55  88 E5        30.13F
SHELDON *      PTCLDY    57  55  94 E7        30.13F
SIOUX CITY     CLOUDY    65  59  81 E8        30.11F
SPENCER        PTCLDY    58  55  90 E6        30.16F
STORM LAKE *   PTCLDY    61  61 100 NE7       30.14F
$$

IAZ055>058-069>071-079>083-090>094-271200-
   SOUTHWEST IOWA

CITY           SKY/WX    TMP DP  RH WIND       PRES   REMARKS
ATLANTIC *     HVY RAIN  66  64  94 NE7       30.13R
AUDUBON *      PTCLDY    68  66  94 CALM      30.15R
CLARINDA *     MOCLDY    70  70 100 S6        30.13R
COUNCIL BLFS * MOCLDY    66  66 100 E9        30.09S
CRESTON *      PTCLDY    66  66 100 E6        30.12S
HARLAN  *      DRIZZLE   66  66 100 NE5       30.15R
LAMONI         TSTM      67  66  97 E6        30.11R FOG
RED OAK *      CLOUDY    68  66  94 E6        30.11R
SHENANDOAH *   CLOUDY    70  68  94 SE8       30.09S
$$

IAZ047>049-059>061-072>074-084-271200-
   CENTRAL IOWA

CITY           SKY/WX    TMP DP  RH WIND       PRES   REMARKS
AMES           CLOUDY    65  62  90 CALM      30.14R
ANKENY *       PTCLDY    64  63  94 CALM      30.13R
CHARITON *     CLOUDY    66  64  94 E6        30.11R
DES MOINES     MOCLDY    69  61  75 E8        30.12R
GRINNELL*      PTCLDY    64  61  88 NE6       30.15R
KNOXVILLE *    MOCLDY    66  63  88 NE7       30.11R
MARSHALLTOWN   MOCLDY    63  60  90 E5        30.14F
PELLA *        MOCLDY    64  64 100 CALM      30.14R
PERRY *        CLOUDY    66  64  94 CALM      30.14R
$$

IAZ004>006-015-016-023>025-035-036-271200-
   NORTH CENTRAL IOWA

CITY           SKY/WX    TMP DP  RH WIND       PRES   REMARKS
ALGONA *       CLOUDY    59  57  94 NE5       30.16F
CLARION *      CLOUDY    61  59  94 E7        30.15F
ESTHERVILLE    CLEAR     55  54  96 CALM      30.17S
FORT DODGE *   CLOUDY    63  57  82 NE7       30.14F
MASON CITY     CLEAR     55  55 100 NE5       30.18F
FOREST CITY *  CLEAR     57  57 100 CALM      30.16F
IOWA FALLS *     N/A     63  57  82 E5        30.17S
$$

IAZ007>011-017>019-026>030-037>042-050>054-066-271200-
   NORTHEAST IOWA

CITY           SKY/WX    TMP DP  RH WIND       PRES   REMARKS
CEDAR RAPIDS   LGT RAIN  66  62  87 NE9       30.13S
CHARLES CITY * CLEAR     59  55  88 E5        30.17F
CLINTON *      MOCLDY    64  61  88 N7        30.17R
DECORAH *      PTCLDY    57  57 100 CALM      30.17S
DUBUQUE        CLEAR     61  59  93 NE7       30.17S
MONTICELLO *   CLEAR     64  61  88 NE3       30.14F
OELWEIN *      CLEAR     59  57  94 NE7       30.16F
WATERLOO       CLEAR     60  57  89 NE5       30.14F
$$

IAZ064-065-067-068-078-271200-
   EAST CENTRAL IOWA

CITY           SKY/WX    TMP DP  RH WIND       PRES   REMARKS
DAVENPORT      MOCLDY    67  63  87 NE8       30.13S
IOWA CITY      MOCLDY    67  62  84 NE7       30.13S
MT. PLEASANT * MOCLDY    66  64  94 NE3       30.11F
MUSCATINE *    MOCLDY    66  64  94 N5        30.12S
QUAD CITIES    PTCLDY    69  63  81 NE7       30.12S
$$

IAZ062-063-075>077-085>089-095>099-271200-
   SOUTHEAST IOWA

CITY           SKY/WX    TMP DP  RH WIND       PRES   REMARKS
BURLINGTON     MOCLDY    70  67  90 NE9       30.10S
FAIRFIELD *    PTCLDY    64  63  94 E5        30.11S
FORT MADISON * CLEAR     70  68  94 NE5       30.11S
KEOKUK *       MOCLDY    70  68  94 NE5       30.09S
OSKALOOSA *      N/A     64  63  94 NE3       30.13R
CENTERVILLE *  CLEAR     66  66 100 NE5       30.12R
OTTUMWA        PTCLDY    65  63  93 E7        30.11S
WASHINGTON *   PTCLDY    66  66 100 NE6       30.11S
$$

ABBREVIATIONS USED IN REMARKS
   TC - TEMPERATURES IN CELSIUS
  WCI - WIND CHILL INDEX
   HX - HEAT INDEX
  VSB - VISIBILITY
$$



USA.gov is the U.S. government's official web portal to all federal, state and local government web resources and services.